User: anonymous   Login
Location: Beadle
(51.4667°N, 109.0000°W)
Time: 13:00:06
(UTC+00:00)
Language:

STARLINK-2233 - Orbit

View from above orbital plane
View from above orbital plane
View from above satellite
View from above satellite

Ground track
Ground track

The orbit data is extracted from the following two-line orbital elements,

1 48579U 21041AC  22337.99238868  .00001727  00000-0  13479-3 0  9995
2 48579  53.0561  81.3661 0001415  60.5017 299.6113 15.06401837 86033
Epoch (UTC): 03 December 2022 23:49:02
Eccentricity: 0.0001415
inclination: 53.0561°
perigee height: 546 km
apogee height: 548 km
right ascension of ascending node: 81.3661°
argument of perigee: 60.5017°
revolutions per day: 15.06401837
mean anomaly at epoch: 299.6113°
orbit number at epoch: 8603

The dashed part of the orbit path shows where the satellite is in the earth's shadow,  

DLR